Location: Amsterdam
(30.7274°N, 84.4357°W)
Time: 23:52:58
(UTC+00:00)

Tiros 1 - Pass Details

Date: 19 February 2026
Orbit: 618 x 649 km, 48.4° (Epoch: 9 March)

Event Time Altitude Azimuth Distance (km) Brightness Sun altitude
Rises 13:29:15 0° 251° (WSW) 2,917 10.1 14.5°
Reaches altitude 10° 13:31:45 10° 260° (W) 2,005 9.2 15.0°
Maximum altitude 13:35:58 34° 326° (NW) 1,025 7.9 15.8°
Drops below altitude 10° 13:40:10 10° 32° (NNE) 1,993 9.8 16.6°
Sets 13:42:38 0° 42° (NE) 2,897 10.7 17.1°
